{"data":{"norad_id":66296,"epoch":"2026-09-20T21:37:11.168544Z","epoch_age_seconds":96995,"freshness":"FRESH","line1":"1 66296U 25248D   26263.90082371  .00004203  00000+0  18894-3 0  9990","line2":"2 66296  45.4034 325.7873 0004728 256.7817 103.2543 15.22740181 49117","mean_motion":15.22740181,"eccentricity":0.0004728,"inclination_deg":45.4034,"raan_deg":325.7873,"arg_perigee_deg":256.7817,"mean_anomaly_deg":103.2543,"bstar":0.00018894,"rev_number":4911,"period_min":94.566362532992,"perigee_km":494.32878731531,"apogee_km":500.83046495699,"semimajor_km":6875.7166261362,"source":"CELESTRAK","updated_at":"2026-09-21T09:00:15.898067Z"}}